| time (UTC) | temp F | wind direction | speed knots | gust knots | rain 1hr in | rain 24hr in | rain mn in | humidity % | barometer mb |
| 20260504004459 | 57 | 238 | 0.0 | 2.6 | 0.00 | 0.00 | 0.00 | 40 | 1012.3 |
| 20260504003955 | 57 | 240 | 0.0 | 2.6 | 0.00 | 0.00 | 0.00 | 39 | 1012.5 |
| 20260504003455 | 58 | 238 | 0.9 | 2.6 | 0.00 | 0.00 | 0.00 | 38 | 1012.5 |
| 20260504001955 | 58 | 232 | 0.0 | 5.2 | 0.00 | 0.00 | 0.00 | 38 | 1012.1 |
| 20260504001454 | 58 | 267 | 2.6 | 5.2 | 0.00 | 0.00 | 0.00 | 37 | 1011.8 |
| 20260504000953 | 58 | 261 | 1.7 | 2.6 | 0.00 | 0.00 | 0.00 | 37 | 1011.9 |
| 20260504000455 | 58 | 205 | 0.9 | 5.2 | 0.00 | 0.00 | 0.00 | 37 | 1011.6 |
| 20260503235954 | 58 | 303 | 0.0 | 5.2 | 0.00 | 0.00 | 0.00 | 37 | 1011.7 |
| 20260503234947 | 58 | 217 | 0.9 | 3.5 | 0.00 | 0.00 | 0.00 | 36 | 1011.9 |
| 20260503234442 | 59 | 240 | 0.0 | 6.1 | 0.00 | 0.00 | 0.00 | 35 | 1011.9 |
| 20260503233942 | 59 | 255 | 0.9 | 6.1 | 0.00 | 0.00 | 0.00 | 35 | 1011.7 |
| 20260503232930 | 60 | 257 | 1.7 | 7.0 | 0.00 | 0.00 | 0.00 | 33 | 1011.6 |
| 20260503232430 | 60 | 221 | 2.6 | 7.0 | 0.00 | 0.00 | 0.00 | 33 | 1011.5 |
| 20260503231924 | 60 | 239 | 1.7 | 8.7 | 0.00 | 0.00 | 0.00 | 34 | 1011.6 |
| 20260503231418 | 60 | 261 | 1.7 | 8.7 | 0.00 | 0.00 | 0.00 | 33 | 1011.4 |
| 20260503230919 | 60 | 330 | 0.9 | 5.2 | 0.00 | 0.00 | 0.00 | 33 | 1011.5 |
| 20260503230411 | 61 | 232 | 1.7 | 7.0 | 0.00 | 0.00 | 0.00 | 33 | 1011.4 |
| 20260503225906 | 61 | 272 | 1.7 | 7.0 | 0.00 | 0.00 | 0.00 | 33 | 1011.5 |
| 20260503225406 | 61 | 259 | 3.5 | 7.0 | 0.00 | 0.00 | 0.00 | 33 | 1011.3 |
| 20260503224407 | 61 | 175 | 3.5 | 7.0 | 0.00 | 0.00 | 0.00 | 32 | 1011.1 |
| 20260503223906 | 62 | 269 | 3.5 | 7.0 | 0.00 | 0.00 | 0.00 | 32 | 1011.3 |
| 20260503223406 | 61 | 233 | 0.9 | 7.8 | 0.00 | 0.00 | 0.00 | 33 | 1011.3 |
| 20260503222905 | 62 | 236 | 4.3 | 7.8 | 0.00 | 0.00 | 0.00 | 31 | 1011.4 |
| 20260503222407 | 62 | 243 | 2.6 | 7.8 | 0.00 | 0.00 | 0.00 | 32 | 1011.3 |
| 20260503221406 | 62 | 279 | 3.5 | 8.7 | 0.00 | 0.00 | 0.00 | 31 | 1011.3 |
| 20260503220408 | 62 | 259 | 0.9 | 7.8 | 0.00 | 0.00 | 0.00 | 30 | 1011.2 |
| 20260503215907 | 62 | 235 | 2.6 | 9.6 | 0.00 | 0.00 | 0.00 | 31 | 1011.4 |
| 20260503215407 | 62 | 235 | 5.2 | 9.6 | 0.00 | 0.00 | 0.00 | 30 | 1011.2 |
| 20260503214905 | 62 | 247 | 1.7 | 12.2 | 0.00 | 0.00 | 0.00 | 31 | 1011.2 |
| 20260503214406 | 62 | 260 | 3.5 | 12.2 | 0.00 | 0.00 | 0.00 | 30 | 1011.1 |
| 20260503213906 | 63 | 246 | 7.8 | 12.2 | 0.00 | 0.00 | 0.00 | 30 | 1011.1 |
| 20260503213407 | 63 | 226 | 1.7 | 7.8 | 0.00 | 0.00 | 0.00 | 30 | 1011.2 |
| 20260503212907 | 63 | 237 | 1.7 | 7.8 | 0.00 | 0.00 | 0.00 | 29 | 1011.3 |
| 20260503212407 | 62 | 236 | 0.9 | 7.8 | 0.00 | 0.00 | 0.00 | 30 | 1011.1 |
| 20260503211908 | 62 | 264 | 5.2 | 7.8 | 0.00 | 0.00 | 0.00 | 29 | 1011.2 |
| 20260503211406 | 62 | 303 | 1.7 | 13.0 | 0.00 | 0.00 | 0.00 | 30 | 1011.1 |
| 20260503210907 | 62 | 275 | 5.2 | 13.0 | 0.00 | 0.00 | 0.00 | 31 | 1011.2 |
| 20260503210407 | 62 | 250 | 3.5 | 12.2 | 0.00 | 0.00 | 0.00 | 31 | 1011.2 |
| 20260503204900 | 62 | 228 | 2.6 | 12.2 | 0.00 | 0.00 | 0.00 | 30 | 1011.1 |
| 20260503204355 | 60 | 351 | 3.5 | 11.3 | 0.00 | 0.00 | 0.00 | 31 | 1010.7 |
| 20260503203855 | 60 | 264 | 3.5 | 9.6 | 0.00 | 0.00 | 0.00 | 31 | 1010.9 |
| 20260503203355 | 61 | 230 | 0.9 | 11.3 | 0.00 | 0.00 | 0.00 | 31 | 1010.9 |
| 20260503202855 | 62 | 215 | 5.2 | 12.2 | 0.00 | 0.00 | 0.00 | 30 | 1011.3 |
| 20260503202356 | 61 | 358 | 5.2 | 9.6 | 0.00 | 0.00 | 0.00 | 30 | 1011.1 |
| 20260503201854 | 60 | 258 | 3.5 | 11.3 | 0.00 | 0.00 | 0.00 | 32 | 1011.3 |
| 20260503201353 | 62 | 268 | 3.5 | 11.3 | 0.00 | 0.00 | 0.00 | 31 | 1011.1 |
| 20260503200854 | 62 | 264 | 1.7 | 12.2 | 0.00 | 0.00 | 0.00 | 32 | 1011.3 |
| 20260503200356 | 62 | 235 | 7.0 | 12.2 | 0.00 | 0.00 | 0.00 | 31 | 1011.2 |
| 20260503195856 | 61 | 311 | 3.5 | 13.0 | 0.00 | 0.00 | 0.00 | 31 | 1011.2 |
| 20260503195356 | 62 | 286 | 7.8 | 13.0 | 0.00 | 0.00 | 0.00 | 31 | 1011.3 |
| 20260503194855 | 61 | 285 | 6.1 | 8.7 | 0.00 | 0.00 | 0.00 | 31 | 1011.3 |
| 20260503194354 | 61 | 133 | 3.5 | 11.3 | 0.00 | 0.00 | 0.00 | 33 | 1011.7 |
| 20260503193354 | 60 | 266 | 3.5 | 12.2 | 0.00 | 0.00 | 0.00 | 34 | 1011.6 |
| 20260503192856 | 60 | 246 | 4.3 | 12.2 | 0.00 | 0.00 | 0.00 | 33 | 1011.6 |
| 20260503192354 | 61 | 314 | 5.2 | 8.7 | 0.00 | 0.00 | 0.00 | 33 | 1011.9 |
| 20260503191348 | 59 | 255 | 4.3 | 14.8 | 0.00 | 0.00 | 0.00 | 34 | 1012.0 |
| 20260503190342 | 59 | 237 | 3.5 | 11.3 | 0.00 | 0.00 | 0.00 | 33 | 1011.5 |
| 20260503185835 | 59 | 233 | 5.2 | 14.8 | 0.00 | 0.00 | 0.00 | 33 | 1011.8 |
| 20260503185318 | 59 | 292 | 3.5 | 14.8 | 0.00 | 0.00 | 0.00 | 35 | 1011.8 |
| 20260503184811 | 59 | 242 | 3.5 | 15.6 | 0.00 | 0.00 | 0.00 | 35 | 1012.0 |
| 20260503184306 | 59 | 231 | 9.6 | 15.6 | 0.00 | 0.00 | 0.00 | 35 | 1012.0 |
| 20260503183806 | 58 | 287 | 2.6 | 12.2 | 0.00 | 0.00 | 0.00 | 38 | 1012.0 |
| 20260503183306 | 57 | 211 | 5.2 | 12.2 | 0.00 | 0.00 | 0.00 | 37 | 1012.1 |
| 20260503182806 | 59 | 239 | 3.5 | 9.6 | 0.00 | 0.00 | 0.00 | 36 | 1012.2 |
| 20260503182306 | 57 | 235 | 1.7 | 7.8 | 0.00 | 0.00 | 0.00 | 37 | 1012.3 |
| 20260503181806 | 58 | 277 | 2.6 | 9.6 | 0.00 | 0.00 | 0.00 | 37 | 1012.2 |
| 20260503180806 | 57 | 346 | 3.5 | 7.8 | 0.00 | 0.00 | 0.00 | 38 | 1012.1 |
| 20260503180306 | 57 | 250 | 1.7 | 8.7 | 0.00 | 0.00 | 0.00 | 38 | 1012.4 |
| 20260503175259 | 56 | 225 | 0.9 | 13.0 | 0.00 | 0.00 | 0.00 | 40 | 1012.2 |
| 20260503174754 | 56 | 331 | 5.2 | 13.0 | 0.00 | 0.00 | 0.00 | 39 | 1012.2 |
| 20260503173747 | 55 | 352 | 3.5 | 13.9 | 0.00 | 0.00 | 0.00 | 40 | 1012.4 |
| 20260503173242 | 55 | 222 | 1.7 | 13.0 | 0.00 | 0.00 | 0.00 | 40 | 1012.4 |
| 20260503172242 | 55 | 175 | 2.6 | 11.3 | 0.00 | 0.00 | 0.00 | 40 | 1012.5 |
| 20260503171742 | 56 | 233 | 3.5 | 7.8 | 0.00 | 0.00 | 0.00 | 42 | 1012.5 |
| 20260503170743 | 55 | 271 | 3.5 | 9.6 | 0.00 | 0.00 | 0.00 | 42 | 1012.5 |
| 20260503170236 | 55 | 275 | 1.7 | 9.6 | 0.00 | 0.00 | 0.00 | 41 | 1012.6 |
| 20260503150730 | 52 | 294 | 4.3 | 9.6 | 0.00 | 0.00 | 0.00 | 45 | 1013.2 |
| 20260503150229 | 51 | 244 | 1.7 | 9.6 | 0.00 | 0.00 | 0.00 | 46 | 1013.0 |
| 20260503140206 | 50 | 224 | 2.6 | 11.3 | 0.00 | 0.00 | 0.00 | 50 | 1013.2 |
| 20260503131154 | 49 | 327 | 0.9 | 11.3 | 0.00 | 0.00 | 0.00 | 56 | 1012.8 |
| 20260503130654 | 49 | 21 | 6.1 | 11.3 | 0.00 | 0.00 | 0.00 | 55 | 1013.1 |
| 20260503130154 | 48 | 258 | 0.0 | 9.6 | 0.00 | 0.00 | 0.00 | 56 | 1013.2 |
| 20260503110606 | 46 | 238 | 1.7 | 6.1 | 0.00 | 0.00 | 0.00 | 59 | 1012.7 |
| 20260503110106 | 46 | 275 | 1.7 | 6.1 | 0.00 | 0.00 | 0.00 | 59 | 1012.6 |
| 20260503081518 | 48 | 283 | 0.9 | 2.6 | 0.00 | 0.00 | 0.00 | 55 | 1011.0 |
| 20260503081017 | 48 | 234 | 0.0 | 3.5 | 0.00 | 0.00 | 0.00 | 55 | 1011.4 |
| 20260503080516 | 48 | 325 | 0.9 | 3.5 | 0.00 | 0.00 | 0.00 | 54 | 1011.1 |
| 20260503072517 | 49 | 298 | 1.7 | 5.2 | 0.00 | 0.00 | 0.00 | 52 | 1011.0 |
| 20260503072017 | 49 | 329 | 0.9 | 5.2 | 0.00 | 0.00 | 0.00 | 51 | 1011.1 |
| 20260503071517 | 49 | 253 | 1.7 | 5.2 | 0.00 | 0.00 | 0.00 | 51 | 1011.1 |
| 20260503071017 | 49 | 245 | 1.7 | 5.2 | 0.00 | 0.00 | 0.00 | 50 | 1011.0 |
| 20260503070518 | 49 | 68 | 1.7 | 5.2 | 0.00 | 0.00 | 0.00 | 50 | 1011.0 |
| 20260503054953 | 51 | 284 | 0.0 | 7.0 | 0.00 | 0.00 | 0.00 | 48 | 1011.2 |
| 20260503054453 | 51 | 274 | 1.7 | 7.0 | 0.00 | 0.00 | 0.00 | 47 | 1011.2 |
| 20260503053953 | 51 | 255 | 1.7 | 6.1 | 0.00 | 0.00 | 0.00 | 47 | 1011.4 |
| 20260503053453 | 51 | 44 | 0.9 | 7.0 | 0.00 | 0.00 | 0.00 | 47 | 1011.5 |
| 20260503052953 | 51 | 273 | 1.7 | 7.0 | 0.00 | 0.00 | 0.00 | 47 | 1011.3 |
| 20260503052454 | 51 | 334 | 2.6 | 7.0 | 0.00 | 0.00 | 0.00 | 46 | 1011.4 |
| 20260503051954 | 51 | 266 | 5.2 | 7.0 | 0.00 | 0.00 | 0.00 | 46 | 1011.5 |
| 20260503051453 | 52 | 303 | 1.7 | 6.1 | 0.00 | 0.00 | 0.00 | 46 | 1011.3 |
| 20260503050952 | 52 | 141 | 0.9 | 6.1 | 0.00 | 0.00 | 0.00 | 46 | 1011.4 |
| 20260503050453 | 52 | 330 | 1.7 | 6.1 | 0.00 | 0.00 | 0.00 | 46 | 1011.5 |
| 20260503045453 | 52 | 178 | 0.9 | 5.2 | 0.00 | 0.00 | 0.00 | 46 | 1011.7 |
| 20260503044953 | 52 | 324 | 1.7 | 7.0 | 0.00 | 0.00 | 0.00 | 45 | 1011.8 |
| 20260503043941 | 52 | 318 | 2.6 | 6.1 | 0.00 | 0.00 | 0.00 | 46 | 1011.7 |
| 20260503043441 | 52 | 347 | 3.5 | 5.2 | 0.00 | 0.00 | 0.00 | 46 | 1011.6 |
| 20260503042941 | 52 | 329 | 2.6 | 3.5 | 0.00 | 0.00 | 0.00 | 47 | 1011.9 |
| 20260503041941 | 52 | 331 | 1.7 | 2.6 | 0.00 | 0.00 | 0.00 | 46 | 1011.7 |
| 20260503041440 | 52 | 257 | 0.9 | 2.6 | 0.00 | 0.00 | 0.00 | 46 | 1011.7 |
| 20260503040942 | 52 | 265 | 0.9 | 3.5 | 0.00 | 0.00 | 0.00 | 46 | 1011.8 |
| 20260503040442 | 53 | 279 | 1.7 | 3.5 | 0.00 | 0.00 | 0.00 | 46 | 1011.9 |
| 20260503035441 | 53 | 270 | 1.7 | 3.5 | 0.00 | 0.00 | 0.00 | 46 | 1011.9 |
| 20260503034941 | 53 | 293 | 1.7 | 3.5 | 0.00 | 0.00 | 0.00 | 45 | 1011.6 |
| 20260503034441 | 53 | 266 | 0.9 | 5.2 | 0.00 | 0.00 | 0.00 | 45 | 1011.6 |
| 20260503033941 | 53 | 271 | 2.6 | 5.2 | 0.00 | 0.00 | 0.00 | 45 | 1011.7 |
| 20260503033442 | 53 | 273 | 0.9 | 5.2 | 0.00 | 0.00 | 0.00 | 45 | 1011.5 |
| 20260503032941 | 53 | 262 | 0.9 | 5.2 | 0.00 | 0.00 | 0.00 | 44 | 1011.6 |
| 20260503032429 | 53 | 326 | 0.9 | 3.5 | 0.00 | 0.00 | 0.00 | 45 | 1011.6 |
| 20260503031428 | 53 | 101 | 0.9 | 2.6 | 0.00 | 0.00 | 0.00 | 45 | 1012.0 |
| 20260503030917 | 53 | 229 | 0.0 | 3.5 | 0.00 | 0.00 | 0.00 | 45 | 1011.5 |
| 20260503030417 | 53 | 315 | 0.9 | 3.5 | 0.00 | 0.00 | 0.00 | 45 | 1011.7 |
| 20260503025918 | 53 | 224 | 0.0 | 3.5 | 0.00 | 0.00 | 0.00 | 44 | 1011.6 |
| 20260503025419 | 54 | 317 | 0.9 | 2.6 | 0.00 | 0.00 | 0.00 | 45 | 1011.6 |
| 20260503024919 | 54 | 267 | 0.0 | 3.5 | 0.00 | 0.00 | 0.00 | 44 | 1011.8 |
| 20260503023917 | 55 | 233 | 0.9 | 5.2 | 0.00 | 0.00 | 0.00 | 43 | 1011.8 |
| 20260503023417 | 55 | 316 | 2.6 | 5.2 | 0.00 | 0.00 | 0.00 | 42 | 1011.8 |
| 20260503022917 | 55 | 355 | 0.9 | 3.5 | 0.00 | 0.00 | 0.00 | 43 | 1011.5 |
| 20260503022417 | 55 | 292 | 1.7 | 3.5 | 0.00 | 0.00 | 0.00 | 43 | 1011.4 |
| 20260503021917 | 55 | 239 | 0.9 | 3.5 | 0.00 | 0.00 | 0.00 | 43 | 1011.4 |
| 20260503021418 | 55 | 263 | 0.9 | 5.2 | 0.00 | 0.00 | 0.00 | 43 | 1011.8 |
| 20260503020917 | 55 | 317 | 2.6 | 5.2 | 0.00 | 0.00 | 0.00 | 43 | 1011.6 |
| 20260503020417 | 55 | 265 | 0.9 | 5.2 | 0.00 | 0.00 | 0.00 | 43 | 1011.5 |
| 20260503015916 | 55 | 331 | 0.9 | 5.2 | 0.00 | 0.00 | 0.00 | 43 | 1011.5 |
| 20260503014916 | 55 | 275 | 0.9 | 5.2 | 0.00 | 0.00 | 0.00 | 43 | 1011.5 |
| 20260503013916 | 56 | 233 | 0.9 | 5.2 | 0.00 | 0.00 | 0.00 | 43 | 1011.7 |
| 20260503012904 | 56 | 261 | 0.9 | 2.6 | 0.00 | 0.00 | 0.00 | 43 | 1011.8 |
| 20260503012404 | 56 | 243 | 0.0 | 3.5 | 0.00 | 0.00 | 0.00 | 43 | 1011.7 |
| 20260503011904 | 56 | 272 | 0.9 | 3.5 | 0.00 | 0.00 | 0.00 | 43 | 1011.9 |
| 20260503011404 | 56 | 244 | 0.0 | 2.6 | 0.00 | 0.00 | 0.00 | 43 | 1011.8 |
| 20260503010857 | 56 | 261 | 0.0 | 2.6 | 0.00 | 0.00 | 0.00 | 43 | 1011.6 |
| 20260503010352 | 56 | 264 | 0.9 | 5.2 | 0.00 | 0.00 | 0.00 | 42 | 1011.4 |
| 20260503005852 | 56 | 272 | 1.7 | 5.2 | 0.00 | 0.00 | 0.00 | 42 | 1011.7 |